Indianapolis, IN

9:48 AM EDT on September 26, 2017 (GMT -0400)
Indianapolis International

Weather History for KIND - January, 2014

Change the Weather History Date:

Sunday, January 19, 2014

  Actual Average Record
Temperature  
Mean Temperature 26 °F 28 °F  
Max Temperature 35 °F 35 °F 69 °F (1907)
Min Temperature 17 °F 20 °F -27 °F (1994)
Degree Days  
Heating Degree Days 39 37  
Month to date heating degree days 804 703  
Since 1 July heating degree days 3027 2779  
Cooling Degree Days 0 0  
Month to date cooling degree days 0 0  
Year to date cooling degree days 0 0  
Moisture  
Dew Point 19 °F    
Average Humidity 70    
Maximum Humidity 84    
Minimum Humidity 56    
Precipitation  
Precipitation T in 0.08 in 0.94 in (1927)
Month to date precipitation 2.21 1.71  
Year to date precipitation 2.21 1.71  
Snow  
Snow T in 0.30 in 4.20 in (2000)
Month to date snowfall 23.3 5.2  
Since 1 July snowfall 32.2 13.2  
Snow Depth 3.00 in    
Sea Level Pressure  
Sea Level Pressure 29.87 in    
Wind  
Wind Speed 17 mph (WSW)    
Max Wind Speed 28 mph    
Max Gust Speed 35 mph    
Visibility 9 miles    
Events Snow    
T = Trace of Precipitation, MM = Missing Value Source: NWS Daily Summary

Daily Weather History Graph

Daily Weather History Graph

Search for Another Location

Airport or City:

Trip Planner

Search our weather history database for the weather conditions in past years. The results will help you decide how hot, cold, wet, or windy it might be!

Date:

Astronomy

Jan. 19, 2014 Rise Set
Actual Time 8:02 AM EST 5:49 PM EST
Civil Twilight 7:33 AM EST 6:19 PM EST
Nautical Twilight 7:00 AM EST 6:52 PM EST
Astronomical Twilight 6:28 AM EST 7:24 PM EST
Moon 9:26 PM EST (1/19) 9:32 AM EST (1/19)
Length of Visible Light 10h 45m
Length of Day
9h 47m
Waning Gibbous, 89% of the Moon is Illuminated
Jan 19
Waning Gibbous
Jan 24
Last Quarter
Jan 30
New
Feb 6
First Quarter
Feb 14
Full

Hourly Weather History & Observations

Time (EST) Temp. Windchill Dew Point Humidity Pressure Visibility Wind Dir Wind Speed Gust Speed Precip Events Conditions
12:54 AM 25.0 °F 19.3 °F 23.0 °F 92% 29.79 in 7.0 mi West 4.6 mph - 0.00 in   Overcast
1:54 AM 25.0 °F 10.6 °F 21.9 °F 88% 29.82 in 9.0 mi NW 20.7 mph - 0.00 in Snow Light Snow
2:25 AM 24.8 °F 12.9 °F 19.4 °F 80% 29.81 in 9.0 mi NW 13.8 mph 21.9 mph 0.00 in Snow Light Snow
2:54 AM 23.0 °F 11.7 °F 19.0 °F 85% 29.86 in 10.0 mi NW 11.5 mph - 0.00 in   Overcast
3:54 AM 21.0 °F 7.6 °F 17.1 °F 85% 29.90 in 10.0 mi NW 15.0 mph - N/A   Overcast
4:54 AM 19.9 °F 7.9 °F 16.0 °F 85% 29.92 in 10.0 mi WNW 11.5 mph 19.6 mph N/A   Overcast
5:21 AM 19.4 °F 5.0 °F 15.8 °F 86% 29.90 in 8.0 mi WNW 16.1 mph - N/A   Overcast
5:54 AM 18.0 °F 4.8 °F 14.0 °F 84% 29.97 in 9.0 mi WNW 12.7 mph - 0.00 in Snow Light Snow
6:54 AM 17.1 °F 4.3 °F 14.0 °F 88% 29.98 in 8.0 mi West 11.5 mph - 0.00 in   Overcast
7:54 AM 18.0 °F 5.4 °F 14.0 °F 84% 29.98 in 10.0 mi West 11.5 mph - N/A   Overcast
8:54 AM 17.1 °F 2.0 °F 14.0 °F 88% 29.98 in 7.0 mi WSW 16.1 mph - N/A   Overcast
9:54 AM 18.0 °F 3.1 °F 14.0 °F 84% 29.99 in 7.0 mi SW 16.1 mph - N/A   Overcast
10:54 AM 19.9 °F 5.7 °F 15.1 °F 81% 29.99 in 10.0 mi SW 16.1 mph - N/A   Overcast
11:12 AM 19.4 °F 5.0 °F 15.8 °F 86% 29.95 in 10.0 mi SW 16.1 mph - N/A   Overcast
11:54 AM 21.9 °F 7.3 °F 16.0 °F 78% 29.97 in 10.0 mi SW 18.4 mph - N/A   Mostly Cloudy
12:14 PM 21.2 °F 6.8 °F 15.8 °F 80% 29.93 in 10.0 mi SW 17.3 mph - N/A   Scattered Clouds
12:54 PM 23.0 °F 8.7 °F 17.1 °F 78% 29.93 in 10.0 mi SW 18.4 mph - N/A   Partly Cloudy
1:54 PM 27.0 °F 13.5 °F 18.0 °F 69% 29.90 in 10.0 mi SW 19.6 mph - N/A   Partly Cloudy
2:54 PM 28.9 °F 14.8 °F 19.0 °F 67% 29.86 in 10.0 mi SW 24.2 mph - N/A   Scattered Clouds
3:54 PM 30.9 °F 20.2 °F 21.0 °F 67% 29.83 in 10.0 mi SSW 15.0 mph - N/A   Mostly Cloudy
4:54 PM 32.0 °F 21.2 °F 21.0 °F 64% 29.81 in 10.0 mi SSW 16.1 mph 24.2 mph N/A   Mostly Cloudy
5:54 PM 32.0 °F 20.1 °F 21.0 °F 64% 29.79 in 10.0 mi SSW 19.6 mph - N/A   Mostly Cloudy
6:54 PM 33.1 °F 21.9 °F 21.9 °F 64% 29.78 in 10.0 mi SSW 18.4 mph - N/A   Mostly Cloudy
7:54 PM 33.1 °F 22.2 °F 21.9 °F 64% 29.75 in 10.0 mi SSW 17.3 mph - N/A   Partly Cloudy
8:54 PM 32.0 °F 21.2 °F 21.9 °F 66% 29.75 in 10.0 mi SW 16.1 mph - N/A   Clear
9:54 PM 35.1 °F 22.7 °F 21.9 °F 59% 29.73 in 10.0 mi SW 25.3 mph 33.4 mph N/A   Clear
10:54 PM 35.1 °F 22.5 °F 23.0 °F 61% 29.73 in 10.0 mi SW 26.5 mph 32.2 mph N/A   Mostly Cloudy
11:54 PM 35.1 °F 22.7 °F 24.1 °F 64% 29.70 in 10.0 mi SW 25.3 mph 32.2 mph N/A   Mostly Cloudy